QPF
0.00 0.00 0.00 0.00 0.00 0.00 0.00 0.00 0.00 0.00 0.00 0.00 0.00 0.00 0.00 0.00 0.00 0.00 0.01 0.01 0.02 0.03 0.03 0.02 0.01 0.01 0.01 0.01 0.00 0.00 0.00 0.00 0.00 0.00 0.00 0.00 0.00 0.00 0.00 0.00 0.01 0.01 0.01
0.00 0.00 0.00 0.00 0.00 0.00 0.00 0.00 0.00 0.00 0.00 0.00 0.00 0.00 0.00 0.00 0.00 0.01 0.01 0.01 0.02 0.03 0.03 0.02 0.02 0.01 0.01 0.01 0.01 0.00 0.00 0.00 0.00 0.00 0.00 0.00 0.00 0.00 0.00 0.00 0.00 0.00 0.00
0.00 0.00 0.00 0.00 0.00 0.00 0.00 0.00 0.00 0.00 0.00 0.00 0.00 0.00 0.00 0.00 0.00 0.00 0.01 0.01 0.02 0.02 0.02 0.02 0.02 0.02 0.01 0.01 0.01 0.01 0.01 0.01 0.01 0.00 0.00 0.00 0.00 0.00 0.00 0.00 0.00 0.00 0.00
0.00 0.00 0.00 0.00 0.00 0.00 0.00 0.00 0.00 0.00 0.00 0.00 0.00 0.00 0.00 0.00 0.00 0.00 0.00 0.01 0.02 0.02 0.03 0.02 0.02 0.02 0.02 0.01 0.02 0.02 0.02 0.01 0.01 0.01 0.00 0.00 0.00 0.00 0.00 0.00 0.00 0.00 0.01
0.00 0.00 0.00 0.00 0.00 0.00 0.00 0.00 0.00 0.00 0.00 0.00 0.00 0.00 0.00 0.00 0.00 0.00 0.00 0.01 0.01 0.02 0.03 0.03 0.02 0.02 0.02 0.02 0.02 0.02 0.02 0.02 0.02 0.01 0.01 0.00 0.00 0.00 0.00 0.00 0.00 0.00 0.00
0.00 0.00 0.00 0.00 0.00 0.00 0.00 0.00 0.00 0.00 0.00 0.00 0.00 0.00 0.00 0.00 0.00 0.00 0.00 0.01 0.01 0.02 0.03 0.03 0.03 0.03 0.02 0.02 0.02 0.01 0.01 0.02 0.02 0.01 0.01 0.00 0.00 0.00 0.00 0.00 0.00 0.00 0.00
0.00 0.00 0.00 0.00 0.00 0.00 0.00 0.00 0.00 0.00 0.00 0.00 0.00 0.00 0.00 0.00 0.00 0.00 0.00 0.01 0.01 0.01 0.03 0.03 0.03 0.03 0.03 0.03 0.03 0.02 0.01 0.01 0.01 0.01 0.01 0.00 0.00 0.00 0.00 0.00 0.00 0.00 0.00
0.00 0.00 0.00 0.00 0.00 0.00 0.00 0.00 0.00 0.00 0.00 0.00 0.00 0.00 0.00 0.00 0.00 0.00 0.00 0.01 0.01 0.01 0.02 0.03 0.03 0.04 0.03 0.03 0.03 0.03 0.02 0.01 0.01 0.01 0.02 0.01 0.01 0.00 0.00 0.01 0.01 0.01 0.00
0.00 0.00 0.00 0.00 0.00 0.00 0.00 0.00 0.00 0.00 0.00 0.00 0.00 0.00 0.00 0.00 0.01 0.01 0.01 0.01 0.01 0.02 0.03 0.03 0.03 0.03 0.03 0.03 0.03 0.03 0.02 0.01 0.01 0.01 0.01 0.01 0.01 0.01 0.01 0.01 0.01 0.01 0.01
0.00 0.00 0.00 0.00 0.00 0.00 0.00 0.00 0.00 0.00 0.00 0.00 0.00 0.01 0.01 0.01 0.01 0.01 0.01 0.01 0.01 0.02 0.03 0.03 0.03 0.03 0.03 0.03 0.03 0.03 0.02 0.01 0.01 0.01 0.01 0.01 0.02 0.02 0.02 0.02 0.02 0.02 0.02
0.00 0.00 0.00 0.00 0.00 0.00 0.00 0.00 0.00 0.00 0.00 0.00 0.00 0.00 0.01 0.01 0.02 0.02 0.02 0.02 0.02 0.03 0.03 0.03 0.04 0.03 0.03 0.03 0.03 0.03 0.02 0.02 0.01 0.02 0.02 0.02 0.02 0.02 0.03 0.03 0.03 0.03 0.03
0.00 0.00 0.00 0.00 0.00 0.00 0.00 0.00 0.00 0.00 0.00 0.00 0.00 0.00 0.01 0.02 0.02 0.02 0.02 0.02 0.03 0.04 0.03 0.03 0.04 0.04 0.03 0.03 0.03 0.03 0.02 0.01 0.02 0.01 0.02 0.02 0.02 0.03 0.04 0.04 0.04 0.04 0.03
0.00 0.00 0.00 0.00 0.00 0.00 0.00 0.01 0.00 0.00 0.00 0.00 0.00 0.00 0.00 0.00 0.01 0.01 0.01 0.02 0.03 0.04 0.04 0.04 0.03 0.03 0.03 0.03 0.02 0.02 0.01 0.01 0.01 0.01 0.01 0.01 0.02 0.03 0.04 0.05 0.05 0.04 0.03
0.00 0.00 0.00 0.00 0.00 0.00 0.00 0.01 0.01 0.00 0.00 0.00 0.00 0.00 0.00 0.00 0.00 0.00 0.01 0.01 0.02 0.04 0.04 0.04 0.03 0.03 0.03 0.03 0.03 0.02 0.01 0.01 0.01 0.01 0.01 0.01 0.01 0.02 0.02 0.02 0.03 0.03 0.03
0.00 0.00 0.00 0.00 0.00 0.00 0.01 0.01 0.01 0.00 0.00 0.00 0.00 0.00 0.00 0.00 0.00 0.01 0.01 0.01 0.02 0.04 0.03 0.04 0.03 0.03 0.03 0.03 0.02 0.02 0.01 0.00 0.00 0.00 0.00 0.00 0.01 0.01 0.02 0.03 0.03 0.04 0.03
0.01 0.01 0.01 0.01 0.01 0.01 0.01 0.01 0.01 0.00 0.00 0.01 0.00 0.00 0.00 0.00 0.01 0.01 0.01 0.01 0.02 0.03 0.03 0.03 0.02 0.02 0.03 0.03 0.03 0.02 0.01 0.00 0.00 0.00 0.00 0.01 0.01 0.01 0.02 0.04 0.04 0.04 0.04
0.01 0.01 0.01 0.01 0.01 0.01 0.01 0.02 0.01 0.01 0.01 0.01 0.01 0.01 0.01 0.01 0.01 0.01 0.01 0.01 0.03 0.03 0.02 0.02 0.02 0.02 0.03 0.03 0.02 0.01 0.01 0.00 0.00 0.00 0.00 0.01 0.02 0.03 0.02 0.03 0.03 0.04 0.04
0.01 0.01 0.01 0.01 0.01 0.01 0.01 0.02 0.02 0.01 0.01 0.01 0.01 0.01 0.01 0.01 0.01 0.01 0.01 0.02 0.04 0.02 0.01 0.01 0.01 0.02 0.01 0.01 0.01 0.01 0.00 0.00 0.00 0.01 0.01 0.01 0.01 0.02 0.02 0.03 0.03 0.04 0.03
0.00 0.00 0.00 0.00 0.00 0.00 0.00 0.01 0.01 0.01 0.01 0.01 0.01 0.00 0.01 0.01 0.01 0.01 0.01 0.02 0.03 0.02 0.01 0.01 0.01 0.01 0.01 0.01 0.00 0.00 0.00 0.00 0.00 0.01 0.01 0.01 0.01 0.01 0.02 0.03 0.03 0.03 0.03
0.00 0.00 0.00 0.00 0.00 0.00 0.00 0.00 0.01 0.01 0.01 0.01 0.00 0.01 0.01 0.01 0.01 0.01 0.01 0.02 0.02 0.01 0.01 0.01 0.01 0.01 0.00 0.01 0.00 0.00 0.00 0.00 0.00 0.01 0.01 0.02 0.02 0.02 0.03 0.04 0.04 0.04 0.03
0.01 0.01 0.00 0.00 0.00 0.00 0.00 0.01 0.01 0.01 0.01 0.01 0.01 0.01 0.01 0.01 0.01 0.01 0.01 0.01 0.01 0.01 0.01 0.01 0.01 0.01 0.00 0.00 0.01 0.01 0.00 0.01 0.01 0.01 0.01 0.02 0.03 0.03 0.03 0.05 0.05 0.04 0.03
0.02 0.01 0.01 0.01 0.00 0.00 0.00 0.01 0.01 0.01 0.01 0.01 0.01 0.01 0.01 0.01 0.01 0.01 0.01 0.01 0.01 0.01 0.01 0.01 0.01 0.00 0.00 0.01 0.01 0.01 0.01 0.01 0.02 0.03 0.03 0.03 0.02 0.02 0.03 0.03 0.03 0.03 0.03
0.01 0.01 0.01 0.01 0.01 0.01 0.01 0.01 0.01 0.01 0.01 0.01 0.01 0.02 0.02 0.01 0.01 0.01 0.01 0.01 0.01 0.01 0.01 0.01 0.01 0.00 0.01 0.01 0.01 0.02 0.02 0.02 0.02 0.03 0.03 0.03 0.02 0.02 0.02 0.03 0.03 0.03 0.04
0.00 0.01 0.01 0.01 0.01 0.00 0.00 0.00 0.01 0.01 0.01 0.01 0.01 0.02 0.02 0.01 0.01 0.01 0.01 0.01 0.01 0.01 0.01 0.01 0.01 0.01 0.01 0.01 0.01 0.01 0.01 0.02 0.02 0.02 0.02 0.02 0.02 0.02 0.02 0.03 0.03 0.04 0.05
0.01 0.01 0.01 0.01 0.00 0.00 0.00 0.00 0.01 0.01 0.01 0.01 0.01 0.02 0.02 0.02 0.02 0.02 0.02 0.02 0.01 0.01 0.02 0.02 0.02 0.02 0.02 0.02 0.02 0.02 0.02 0.02 0.02 0.02 0.03 0.02 0.02 0.02 0.02 0.02 0.03 0.04 0.04
0.01 0.01 0.01 0.01 0.01 0.01 0.01 0.01 0.01 0.01 0.01 0.02 0.02 0.02 0.02 0.03 0.02 0.02 0.03 0.03 0.02 0.02 0.02 0.03 0.03 0.02 0.02 0.02 0.02 0.03 0.02 0.02 0.02 0.03 0.03 0.03 0.02 0.02 0.02 0.02 0.03 0.04 0.04
MSLP
1008.36 1008.75 1009.24 1009.80 1010.42 1011.10 1011.82 1012.58 1013.36 1014.15 1014.93 1015.66 1016.33 1016.91 1017.39 1017.76 1018.04 1018.24 1018.39 1018.53 1018.67 1018.85 1019.07 1019.34 1019.65 1019.96 1020.27 1020.54 1020.77 1020.95 1021.07 1021.15 1021.21 1021.26 1021.30 1021.33 1021.36 1021.36 1021.32 1021.24 1021.09 1020.89 1020.65
1007.63 1008.04 1008.54 1009.11 1009.74 1010.42 1011.16 1011.96 1012.80 1013.67 1014.54 1015.38 1016.15 1016.83 1017.37 1017.79 1018.08 1018.27 1018.41 1018.52 1018.65 1018.83 1019.07 1019.37 1019.71 1020.06 1020.40 1020.69 1020.93 1021.10 1021.22 1021.30 1021.36 1021.41 1021.47 1021.52 1021.56 1021.58 1021.55 1021.45 1021.29 1021.06 1020.77
1006.94 1007.34 1007.83 1008.38 1009.00 1009.68 1010.43 1011.25 1012.14 1013.08 1014.04 1014.98 1015.85 1016.62 1017.24 1017.72 1018.04 1018.25 1018.40 1018.51 1018.64 1018.83 1019.07 1019.38 1019.73 1020.10 1020.44 1020.73 1020.97 1021.14 1021.27 1021.36 1021.44 1021.52 1021.60 1021.69 1021.77 1021.81 1021.78 1021.67 1021.48 1021.21 1020.88
1006.42 1006.78 1007.23 1007.75 1008.34 1008.99 1009.73 1010.55 1011.47 1012.45 1013.48 1014.49 1015.45 1016.29 1016.99 1017.52 1017.90 1018.15 1018.32 1018.46 1018.61 1018.80 1019.05 1019.35 1019.70 1020.05 1020.38 1020.66 1020.89 1021.07 1021.21 1021.32 1021.44 1021.57 1021.71 1021.85 1021.97 1022.03 1022.01 1021.89 1021.66 1021.33 1020.93
1006.19 1006.49 1006.89 1007.35 1007.89 1008.49 1009.19 1009.99 1010.90 1011.89 1012.93 1013.98 1014.98 1015.87 1016.62 1017.21 1017.65 1017.95 1018.16 1018.33 1018.51 1018.72 1018.97 1019.27 1019.60 1019.93 1020.24 1020.50 1020.72 1020.90 1021.06 1021.21 1021.38 1021.57 1021.77 1021.97 1022.13 1022.21 1022.19 1022.04 1021.77 1021.39 1020.91
1006.33 1006.57 1006.89 1007.29 1007.75 1008.29 1008.93 1009.67 1010.52 1011.47 1012.48 1013.51 1014.50 1015.40 1016.17 1016.80 1017.27 1017.63 1017.89 1018.12 1018.33 1018.57 1018.84 1019.14 1019.45 1019.75 1020.03 1020.27 1020.48 1020.66 1020.84 1021.04 1021.26 1021.51 1021.77 1022.02 1022.21 1022.31 1022.28 1022.10 1021.78 1021.33 1020.79
1006.87 1007.04 1007.29 1007.60 1007.99 1008.45 1008.99 1009.65 1010.41 1011.27 1012.19 1013.14 1014.06 1014.92 1015.67 1016.30 1016.80 1017.19 1017.52 1017.80 1018.07 1018.35 1018.64 1018.95 1019.25 1019.53 1019.78 1020.00 1020.20 1020.38 1020.59 1020.82 1021.09 1021.39 1021.69 1021.97 1022.18 1022.28 1022.23 1022.02 1021.65 1021.15 1020.56
1007.77 1007.87 1008.04 1008.27 1008.57 1008.94 1009.38 1009.92 1010.57 1011.29 1012.08 1012.90 1013.71 1014.47 1015.16 1015.75 1016.25 1016.67 1017.05 1017.39 1017.72 1018.05 1018.39 1018.71 1019.01 1019.28 1019.52 1019.72 1019.90 1020.09 1020.30 1020.56 1020.86 1021.19 1021.52 1021.81 1022.02 1022.11 1022.04 1021.80 1021.39 1020.85 1020.22
1008.94 1008.97 1009.06 1009.22 1009.42 1009.69 1010.03 1010.45 1010.95 1011.52 1012.15 1012.80 1013.45 1014.07 1014.65 1015.17 1015.65 1016.08 1016.49 1016.89 1017.28 1017.68 1018.06 1018.42 1018.73 1019.01 1019.23 1019.43 1019.60 1019.79 1020.01 1020.27 1020.58 1020.92 1021.25 1021.54 1021.74 1021.80 1021.70 1021.43 1021.01 1020.45 1019.81
1010.24 1010.21 1010.24 1010.31 1010.43 1010.60 1010.83 1011.12 1011.48 1011.88 1012.33 1012.80 1013.27 1013.73 1014.17 1014.60 1015.02 1015.44 1015.87 1016.31 1016.76 1017.22 1017.66 1018.06 1018.40 1018.69 1018.92 1019.12 1019.29 1019.47 1019.69 1019.95 1020.26 1020.59 1020.91 1021.17 1021.34 1021.38 1021.26 1020.97 1020.54 1019.99 1019.36
1011.58 1011.50 1011.45 1011.44 1011.47 1011.55 1011.68 1011.86 1012.07 1012.32 1012.59 1012.87 1013.16 1013.44 1013.74 1014.05 1014.39 1014.77 1015.20 1015.67 1016.16 1016.67 1017.16 1017.61 1017.99 1018.31 1018.56 1018.76 1018.94 1019.13 1019.35 1019.61 1019.90 1020.21 1020.51 1020.74 1020.88 1020.89 1020.75 1020.46 1020.03 1019.51 1018.91
1012.86 1012.72 1012.61 1012.52 1012.48 1012.47 1012.51 1012.58 1012.67 1012.78 1012.89 1012.99 1013.10 1013.21 1013.35 1013.54 1013.78 1014.11 1014.51 1014.98 1015.50 1016.04 1016.57 1017.06 1017.48 1017.83 1018.11 1018.34 1018.54 1018.75 1018.97 1019.23 1019.52 1019.81 1020.08 1020.28 1020.39 1020.38 1020.22 1019.93 1019.53 1019.04 1018.49
1014.04 1013.85 1013.68 1013.52 1013.40 1013.33 1013.28 1013.26 1013.25 1013.23 1013.20 1013.16 1013.10 1013.06 1013.05 1013.10 1013.25 1013.49 1013.84 1014.29 1014.80 1015.35 1015.90 1016.42 1016.88 1017.26 1017.58 1017.84 1018.08 1018.31 1018.56 1018.83 1019.11 1019.39 1019.64 1019.82 1019.91 1019.88 1019.72 1019.43 1019.05 1018.60 1018.10
1015.12 1014.90 1014.67 1014.45 1014.27 1014.12 1014.01 1013.91 1013.82 1013.70 1013.56 1013.38 1013.19 1013.01 1012.86 1012.79 1012.82 1012.97 1013.25 1013.64 1014.12 1014.66 1015.21 1015.73 1016.21 1016.62 1016.98 1017.28 1017.56 1017.83 1018.11 1018.40 1018.70 1018.98 1019.22 1019.38 1019.45 1019.41 1019.24 1018.97 1018.61 1018.19 1017.74
1016.11 1015.87 1015.60 1015.34 1015.10 1014.90 1014.74 1014.58 1014.41 1014.22 1013.98 1013.70 1013.39 1013.09 1012.82 1012.63 1012.55 1012.60 1012.79 1013.11 1013.53 1014.02 1014.55 1015.06 1015.54 1015.97 1016.35 1016.70 1017.02 1017.33 1017.65 1017.97 1018.29 1018.58 1018.81 1018.97 1019.03 1018.97 1018.80 1018.54 1018.20 1017.80 1017.37
1017.02 1016.78 1016.50 1016.21 1015.94 1015.71 1015.49 1015.29 1015.07 1014.81 1014.50 1014.13 1013.74 1013.33 1012.96 1012.67 1012.48 1012.43 1012.53 1012.76 1013.11 1013.53 1014.00 1014.48 1014.95 1015.38 1015.78 1016.15 1016.51 1016.86 1017.21 1017.57 1017.90 1018.20 1018.44 1018.59 1018.63 1018.57 1018.39 1018.13 1017.79 1017.41 1016.99
1017.86 1017.64 1017.36 1017.07 1016.79 1016.53 1016.29 1016.06 1015.79 1015.48 1015.12 1014.69 1014.23 1013.75 1013.30 1012.92 1012.64 1012.50 1012.51 1012.64 1012.90 1013.25 1013.66 1014.08 1014.51 1014.92 1015.32 1015.70 1016.07 1016.45 1016.83 1017.20 1017.55 1017.85 1018.08 1018.22 1018.26 1018.18 1017.99 1017.72 1017.38 1017.00 1016.58
1018.58 1018.40 1018.16 1017.89 1017.62 1017.36 1017.11 1016.85 1016.56 1016.22 1015.82 1015.35 1014.84 1014.31 1013.81 1013.37 1013.03 1012.81 1012.74 1012.80 1012.97 1013.23 1013.56 1013.92 1014.29 1014.66 1015.03 1015.39 1015.76 1016.14 1016.52 1016.89 1017.24 1017.53 1017.75 1017.87 1017.89 1017.79 1017.59 1017.31 1016.96 1016.57 1016.15
1019.16 1019.04 1018.84 1018.62 1018.38 1018.14 1017.89 1017.63 1017.33 1016.97 1016.54 1016.05 1015.52 1014.97 1014.44 1013.97 1013.59 1013.33 1013.20 1013.19 1013.29 1013.47 1013.72 1014.00 1014.30 1014.61 1014.92 1015.25 1015.59 1015.93 1016.29 1016.64 1016.96 1017.23 1017.42 1017.53 1017.52 1017.41 1017.20 1016.91 1016.55 1016.15 1015.72
1019.55 1019.49 1019.36 1019.19 1018.99 1018.79 1018.56 1018.31 1018.01 1017.65 1017.22 1016.74 1016.20 1015.66 1015.13 1014.66 1014.27 1013.99 1013.82 1013.76 1013.80 1013.91 1014.08 1014.28 1014.50 1014.73 1014.97 1015.24 1015.51 1015.81 1016.11 1016.42 1016.70 1016.94 1017.10 1017.18 1017.16 1017.04 1016.82 1016.52 1016.16 1015.75 1015.31
1019.74 1019.74 1019.68 1019.57 1019.43 1019.27 1019.08 1018.85 1018.57 1018.22 1017.81 1017.34 1016.83 1016.31 1015.80 1015.35 1014.98 1014.70 1014.52 1014.43 1014.42 1014.47 1014.56 1014.68 1014.81 1014.96 1015.11 1015.29 1015.49 1015.72 1015.96 1016.21 1016.44 1016.64 1016.78 1016.84 1016.81 1016.68 1016.47 1016.17 1015.82 1015.41 1014.95
1019.77 1019.82 1019.81 1019.76 1019.67 1019.56 1019.41 1019.22 1018.96 1018.64 1018.26 1017.82 1017.34 1016.87 1016.41 1015.99 1015.65 1015.39 1015.21 1015.10 1015.05 1015.05 1015.07 1015.10 1015.14 1015.19 1015.26 1015.35 1015.47 1015.61 1015.79 1015.98 1016.16 1016.33 1016.44 1016.50 1016.47 1016.36 1016.16 1015.88 1015.54 1015.13 1014.67
1019.69 1019.76 1019.79 1019.79 1019.76 1019.69 1019.58 1019.42 1019.20 1018.91 1018.56 1018.16 1017.74 1017.30 1016.90 1016.53 1016.23 1015.99 1015.81 1015.69 1015.61 1015.55 1015.50 1015.45 1015.41 1015.37 1015.34 1015.34 1015.38 1015.45 1015.56 1015.71 1015.86 1016.00 1016.11 1016.16 1016.16 1016.07 1015.90 1015.65 1015.32 1014.93 1014.46
1019.57 1019.65 1019.70 1019.73 1019.73 1019.70 1019.63 1019.50 1019.30 1019.05 1018.74 1018.38 1018.00 1017.62 1017.26 1016.94 1016.67 1016.45 1016.28 1016.14 1016.02 1015.91 1015.79 1015.67 1015.54 1015.41 1015.31 1015.23 1015.20 1015.21 1015.28 1015.38 1015.52 1015.65 1015.77 1015.85 1015.87 1015.82 1015.69 1015.47 1015.17 1014.78 1014.31
1019.49 1019.55 1019.60 1019.64 1019.66 1019.65 1019.59 1019.49 1019.32 1019.09 1018.81 1018.49 1018.15 1017.82 1017.50 1017.22 1016.97 1016.76 1016.59 1016.42 1016.27 1016.10 1015.92 1015.73 1015.52 1015.33 1015.15 1015.02 1014.93 1014.91 1014.94 1015.04 1015.16 1015.31 1015.45 1015.56 1015.61 1015.60 1015.51 1015.32 1015.04 1014.66 1014.19
1019.47 1019.51 1019.53 1019.56 1019.58 1019.56 1019.51 1019.41 1019.25 1019.04 1018.79 1018.50 1018.20 1017.90 1017.62 1017.36 1017.14 1016.93 1016.74 1016.56 1016.36 1016.14 1015.90 1015.65 1015.39 1015.13 1014.91 1014.73 1014.61 1014.57 1014.60 1014.69 1014.82 1014.98 1015.15 1015.29 1015.37 1015.39 1015.33 1015.16 1014.89 1014.52 1014.04
Thickness
5640 5642 5643 5643 5643 5642 5641 5640 5639 5638 5637 5635 5634 5633 5633 5633 5634 5635 5635 5635 5634 5633 5632 5631 5630 5630 5628 5627 5626 5624 5622 5621 5620 5619 5619 5621 5621 5621 5620 5619 5617 5616 5615
5631 5632 5634 5635 5635 5635 5634 5633 5632 5631 5630 5629 5628 5627 5626 5625 5626 5627 5627 5627 5626 5625 5624 5623 5622 5621 5620 5618 5616 5615 5612 5610 5608 5605 5604 5605 5609 5611 5611 5609 5607 5605 5603
5625 5625 5626 5627 5627 5627 5627 5628 5625 5624 5622 5621 5619 5618 5616 5616 5616 5617 5617 5617 5617 5616 5615 5614 5613 5612 5611 5609 5607 5606 5604 5600 5598 5595 5591 5589 5592 5594 5598 5597 5596 5593 5592
5620 5620 5621 5620 5620 5621 5620 5619 5618 5616 5614 5613 5611 5609 5608 5607 5608 5607 5608 5608 5608 5607 5606 5605 5604 5603 5601 5600 5599 5597 5595 5592 5588 5585 5582 5580 5578 5575 5580 5584 5583 5581 5579
5613 5614 5615 5614 5613 5612 5611 5610 5609 5607 5605 5604 5603 5601 5599 5598 5598 5598 5598 5598 5598 5597 5597 5596 5594 5593 5592 5591 5589 5588 5585 5582 5579 5575 5572 5569 5566 5563 5561 5567 5570 5569 5569
5602 5604 5604 5604 5603 5602 5601 5600 5599 5597 5596 5595 5593 5592 5590 5589 5588 5588 5587 5587 5587 5587 5587 5586 5585 5583 5582 5581 5580 5578 5575 5572 5569 5566 5563 5559 5556 5553 5550 5551 5554 5556 5558
5590 5591 5592 5592 5591 5591 5591 5590 5588 5587 5585 5584 5583 5582 5580 5579 5579 5578 5578 5577 5577 5576 5577 5576 5574 5573 5572 5571 5570 5567 5565 5562 5559 5556 5553 5550 5548 5545 5541 5539 5540 5543 5547
5576 5579 5581 5581 5580 5580 5579 5579 5578 5576 5575 5574 5573 5571 5570 5569 5568 5568 5567 5567 5567 5566 5566 5565 5564 5564 5563 5561 5559 5557 5555 5552 5550 5547 5543 5540 5538 5535 5532 5529 5527 5529 5534
5562 5565 5567 5568 5568 5568 5568 5568 5567 5566 5564 5563 5561 5559 5558 5557 5557 5556 5556 5556 5556 5556 5555 5554 5554 5553 5552 5550 5549 5547 5545 5542 5540 5537 5533 5530 5528 5526 5524 5520 5517 5514 5517
5547 5550 5553 5554 5554 5555 5556 5556 5556 5555 5553 5551 5550 5549 5547 5546 5546 5545 5544 5544 5544 5544 5543 5542 5542 5542 5541 5540 5538 5537 5535 5532 5530 5527 5524 5521 5519 5517 5514 5511 5509 5506 5504
5532 5534 5537 5540 5541 5541 5542 5542 5542 5542 5540 5539 5538 5537 5536 5535 5535 5534 5533 5533 5532 5532 5531 5531 5531 5531 5530 5529 5528 5526 5525 5523 5520 5518 5515 5513 5510 5507 5505 5502 5500 5497 5495
5518 5520 5522 5524 5525 5526 5527 5528 5528 5528 5528 5527 5526 5525 5524 5524 5523 5523 5522 5522 5521 5521 5520 5520 5519 5519 5519 5519 5517 5516 5514 5513 5511 5509 5506 5503 5500 5498 5495 5493 5491 5489 5487
5504 5505 5508 5509 5510 5512 5513 5514 5515 5515 5515 5515 5514 5513 5512 5512 5512 5511 5511 5511 5510 5510 5510 5509 5509 5509 5508 5508 5507 5505 5504 5503 5502 5499 5496 5493 5490 5488 5485 5482 5481 5480 5479
5491 5492 5493 5495 5496 5498 5499 5501 5502 5502 5503 5503 5502 5502 5501 5501 5501 5500 5500 5500 5499 5499 5499 5499 5499 5499 5498 5497 5496 5495 5493 5492 5491 5488 5486 5483 5480 5478 5475 5474 5473 5471 5470
5478 5480 5480 5481 5483 5484 5486 5488 5489 5490 5491 5491 5490 5490 5490 5490 5490 5489 5489 5489 5488 5488 5488 5488 5488 5488 5487 5487 5486 5485 5483 5482 5480 5479 5476 5474 5472 5470 5468 5466 5465 5463 5462
5466 5467 5468 5469 5470 5471 5473 5475 5476 5478 5479 5479 5479 5479 5479 5479 5479 5479 5478 5478 5478 5478 5478 5478 5478 5477 5477 5477 5476 5474 5473 5472 5470 5469 5467 5465 5464 5462 5461 5459 5458 5456 5454
5453 5454 5454 5455 5457 5459 5461 5462 5464 5465 5466 5466 5467 5467 5468 5468 5468 5469 5468 5467 5467 5467 5468 5468 5467 5467 5467 5467 5466 5464 5463 5461 5459 5458 5456 5456 5455 5453 5451 5451 5450 5449 5448
5440 5440 5441 5442 5444 5446 5448 5450 5452 5453 5453 5454 5455 5455 5456 5457 5457 5457 5457 5457 5457 5457 5457 5457 5457 5457 5457 5456 5456 5454 5452 5451 5449 5447 5446 5445 5445 5444 5442 5442 5441 5441 5440
5428 5428 5429 5431 5432 5433 5435 5437 5439 5440 5441 5442 5443 5444 5444 5445 5446 5445 5446 5446 5446 5447 5446 5447 5446 5446 5446 5445 5445 5443 5441 5440 5439 5438 5437 5436 5436 5436 5435 5434 5433 5433 5433
5415 5416 5417 5419 5420 5421 5423 5425 5426 5427 5428 5430 5431 5432 5433 5433 5434 5435 5435 5435 5436 5436 5436 5436 5435 5435 5435 5435 5434 5433 5431 5430 5430 5429 5428 5428 5428 5428 5427 5425 5425 5425 5425
5403 5404 5405 5406 5407 5409 5411 5412 5413 5414 5417 5419 5420 5421 5422 5422 5423 5424 5425 5425 5425 5425 5425 5425 5425 5424 5424 5425 5425 5424 5422 5420 5419 5419 5419 5418 5419 5419 5419 5417 5416 5416 5416
5390 5392 5393 5394 5395 5397 5399 5400 5401 5403 5405 5407 5409 5410 5411 5412 5413 5414 5414 5415 5414 5414 5414 5414 5415 5415 5414 5415 5415 5415 5413 5411 5410 5409 5409 5409 5409 5410 5409 5409 5408 5408 5408
5378 5380 5381 5382 5383 5384 5386 5387 5389 5392 5394 5396 5397 5398 5400 5401 5402 5403 5404 5404 5404 5404 5404 5404 5405 5405 5406 5405 5406 5405 5404 5402 5400 5400 5400 5400 5400 5400 5399 5399 5399 5399 5398
5367 5368 5369 5370 5371 5373 5374 5376 5379 5381 5383 5384 5385 5387 5389 5390 5392 5393 5394 5394 5394 5394 5395 5395 5396 5396 5396 5396 5396 5396 5394 5394 5392 5391 5391 5391 5391 5390 5390 5390 5389 5389 5389
5356 5357 5357 5359 5360 5362 5364 5366 5368 5370 5371 5373 5375 5376 5378 5380 5382 5383 5384 5385 5385 5386 5387 5387 5387 5387 5388 5388 5389 5387 5387 5385 5384 5383 5382 5381 5381 5380 5380 5380 5380 5380 5380
5344 5345 5346 5348 5349 5351 5353 5355 5357 5359 5361 5363 5365 5366 5368 5370 5372 5373 5375 5376 5377 5379 5380 5380 5380 5380 5381 5381 5381 5381 5381 5380 5378 5376 5375 5373 5372 5372 5372 5372 5372 5372 5373